S51UL-6 Weather Reports


Display with metric or nautical units.
time (UTC)temp
F
wind
direction
speed
MPH
gust
MPH
rain 1hr
in
rain 24hr
in
rain mn
in
humidity
%
barometer
mb
20260507080301 61 135 0.0 1.0 0.00 0.00 0.00 76 1012.9
20260507075759 61 135 0.0 3.0 0.00 0.00 0.00 76 1013.1
20260507075301 60 180 1.0 3.0 0.00 0.00 0.00 76 1013.0
20260507074801 60 135 0.0 0.0 0.00 0.00 0.00 77 1012.9
20260507074301 60 135 0.0 0.0 0.00 0.00 0.00 77 1012.7
20260507073801 59 135 0.0 0.0 0.00 0.00 0.00 77 1012.7
20260507073301 59 158 0.0 0.0 0.00 0.00 0.00 77 1012.9
20260507072301 59 135 0.0 0.0 0.00 0.00 0.00 77 1012.7
20260507071802 59 135 0.0 0.0 0.00 0.00 0.00 78 1012.7
20260507071302 59 180 0.0 0.0 0.00 0.00 0.00 79 1012.7
20260507070802 59 158 0.0 0.0 0.00 0.00 0.00 79 1012.6
20260507070301 58 158 0.0 0.0 0.00 0.00 0.00 79 1012.4
20260507065802 58 158 0.0 0.0 0.00 0.00 0.00 80 1012.4
20260507065306 58 158 0.0 0.0 0.00 0.00 0.00 80 1012.6
20260507064803 58 158 0.0 0.0 0.00 0.00 0.00 81 1012.4
20260507064303 57 158 0.0 0.0 0.00 0.00 0.00 81 1012.2
20260507063802 57 45 0.0 0.0 0.00 0.00 0.00 81 1012.2
20260507063300 57 45 0.0 0.0 0.00 0.00 0.00 82 1012.2
20260507062802 56 45 0.0 0.0 0.00 0.00 0.00 82 1012.3
20260507062305 56 45 0.0 0.0 0.00 0.00 0.00 82 1012.4
20260507061802 56 45 0.0 0.0 0.00 0.00 0.00 82 1012.4
20260507061302 56 45 0.0 0.0 0.00 0.00 0.00 82 1012.3
20260507060802 55 45 0.0 0.0 0.00 0.00 0.00 82 1012.1
20260507055301 55 45 0.0 0.0 0.00 0.00 0.00 82 1012.1
20260507054801 55 45 0.0 0.0 0.00 0.00 0.00 82 1012.0
20260507054301 54 45 0.0 0.0 0.00 0.00 0.00 82 1012.0
20260507053802 54 45 0.0 0.0 0.00 0.00 0.00 82 1012.0
20260507053304 54 45 0.0 0.0 0.00 0.00 0.00 82 1011.9
20260507052803 54 45 0.0 0.0 0.00 0.00 0.00 82 1011.8
20260507051804 54 45 0.0 0.0 0.00 0.00 0.00 82 1012.0
20260507051303 53 158 0.0 0.0 0.00 0.00 0.00 82 1011.8
20260507050803 53 135 0.0 0.0 0.00 0.00 0.00 82 1011.7
20260507045803 53 113 0.0 0.0 0.00 0.00 0.00 82 1011.7
20260507045306 53 113 0.0 0.0 0.00 0.00 0.00 82 1011.8
20260507044802 53 113 0.0 0.0 0.00 0.00 0.00 82 1011.7
20260507043804 53 113 0.0 0.0 0.00 0.00 0.00 82 1011.7
20260507043301 53 113 0.0 0.0 0.00 0.00 0.00 82 1011.6
20260507041802 53 158 0.0 0.0 0.00 0.00 0.00 81 1011.4
20260507040304 53 158 0.0 0.0 0.00 0.00 0.00 81 1011.3
20260507035805 53 158 0.0 0.0 0.00 0.00 0.00 81 1011.2
20260507035306 53 158 0.0 0.0 0.00 0.00 0.00 82 1010.9
20260507034804 53 158 0.0 0.0 0.00 0.00 0.00 82 1011.3
20260507034304 53 158 0.0 0.0 0.00 0.00 0.00 82 1011.2
20260507033304 53 158 0.0 0.0 0.00 0.00 0.00 82 1011.2
20260507032804 53 180 0.0 0.0 0.00 0.00 0.00 83 1011.3
20260507032306 53 180 0.0 0.0 0.00 0.00 0.00 82 1011.1
20260507031306 52 23 0.0 0.0 0.00 0.00 0.00 81 1011.1
20260507030302 52 23 0.0 0.0 0.00 0.00 0.00 81 1011.0
20260507025804 52 23 0.0 0.0 0.00 0.00 0.00 81 1011.3
20260507025306 53 23 0.0 0.0 0.00 0.00 0.00 81 1011.2
20260507024805 53 23 0.0 0.0 0.00 0.00 0.00 82 1011.1
20260507024305 53 23 0.0 0.0 0.00 0.00 0.00 81 1011.3
20260507023305 53 23 0.0 0.0 0.00 0.00 0.00 81 1011.3
20260507022306 53 23 0.0 0.0 0.00 0.00 0.00 81 1011.3
20260507021805 53 23 0.0 0.0 0.00 0.00 0.00 82 1011.1
20260507021305 53 23 0.0 0.0 0.00 0.00 0.00 82 1011.1
20260507020804 53 158 0.0 0.0 0.00 0.00 0.00 81 1011.2
20260507015804 52 158 0.0 0.0 0.00 0.00 0.00 81 1010.8
20260507015306 52 158 0.0 0.0 0.00 0.00 0.00 81 1010.7
20260507014805 53 158 0.0 0.0 0.00 0.00 0.00 80 1010.8
20260507013805 53 23 0.0 0.0 0.00 0.00 0.00 80 1010.8
20260507013306 53 23 0.0 0.0 0.00 0.00 0.00 79 1011.0
20260507012805 53 23 0.0 0.0 0.00 0.00 0.00 80 1010.8
20260507012306 54 23 0.0 0.0 0.00 0.00 0.00 79 1010.9
20260507011805 54 23 0.0 0.0 0.00 0.00 0.00 80 1011.0
20260507011307 54 23 0.0 0.0 0.00 0.00 0.00 79 1011.0
20260507010808 54 23 0.0 0.0 0.00 0.00 0.00 79 1011.0
20260507010306 54 23 0.0 0.0 0.00 0.00 0.00 78 1010.9
20260507005806 55 23 0.0 0.0 0.00 0.00 0.00 77 1011.1
20260507004306 55 23 0.0 0.0 0.00 0.00 0.00 77 1010.9
20260507002806 55 23 0.0 0.0 0.00 0.00 0.00 77 1010.9
20260507001806 55 90 0.0 0.0 0.00 0.00 0.00 77 1011.0
20260507001307 55 113 0.0 0.0 0.00 0.00 0.00 76 1011.0
20260507000806 55 45 0.0 0.0 0.00 0.00 0.00 75 1010.9
20260506235807 56 45 0.0 0.0 0.00 0.00 0.00 75 1011.0
20260506235307 56 45 0.0 0.0 0.00 0.00 0.00 75 1011.1
20260506234307 56 45 0.0 0.0 0.00 0.00 0.00 75 1011.1
20260506233809 57 180 0.0 0.0 0.00 0.00 0.00 75 1011.2
20260506233307 57 180 0.0 0.0 0.00 0.00 0.00 74 1011.3
20260506232807 57 180 0.0 0.0 0.00 0.00 0.00 74 1011.1
20260506232310 57 180 0.0 0.0 0.00 0.00 0.00 74 1011.1
20260506231807 57 135 0.0 0.0 0.00 0.00 0.00 74 1010.9
20260506230810 58 23 0.0 0.0 0.00 0.00 0.00 74 1011.2
20260506230307 58 0 0.0 0.0 0.00 0.00 0.00 74 1011.2
20260506225307 58 23 0.0 0.0 0.00 0.00 0.00 73 1010.9
20260506224308 59 180 0.0 0.0 0.00 0.00 0.00 73 1010.9
20260506223807 59 180 0.0 0.0 0.00 0.00 0.00 73 1010.7
20260506222855 59 135 0.0 0.0 0.00 0.00 0.00 73 1010.8
20260506222808 59 135 0.0 0.0 0.00 0.00 0.00 73 1010.8
20260506222345 59 293 0.0 0.0 0.00 0.00 0.00 72 1010.6
20260506222308 59 293 0.0 0.0 0.00 0.00 0.00 72 1010.6
20260506221808 59 293 0.0 0.0 0.00 0.00 0.00 72 1010.5
20260506221313 59 293 0.0 0.0 0.00 0.00 0.00 72 1010.6
20260506220808 59 203 0.0 0.0 0.00 0.00 0.00 72 1010.6
20260506220308 59 135 0.0 0.0 0.00 0.00 0.00 72 1010.9
20260506215808 59 158 0.0 2.0 0.00 0.00 0.00 72 1010.7
20260506215308 59 135 0.0 2.0 0.00 0.00 0.00 72 1010.6
20260506213808 59 248 0.0 2.0 0.00 0.00 0.00 72 1010.8
20260506213308 59 248 0.0 0.0 0.00 0.00 0.00 72 1010.7
20260506212809 59 248 0.0 0.0 0.00 0.00 0.00 72 1010.7
20260506212308 59 248 0.0 0.0 0.00 0.00 0.00 72 1010.9
20260506211808 59 248 0.0 0.0 0.00 0.00 0.00 72 1010.9
20260506210808 60 248 0.0 0.0 0.00 0.00 0.00 72 1010.8
20260506210309 60 158 0.0 0.0 0.00 0.00 0.00 71 1010.5
20260506205810 60 158 0.0 0.0 0.00 0.00 0.00 71 1010.5
20260506205308 60 158 0.0 0.0 0.00 0.00 0.00 71 1010.4
20260506204309 60 158 0.0 0.0 0.00 0.00 0.00 71 1010.4
20260506203809 60 135 2.0 4.0 0.00 0.00 0.00 71 1010.3
20260506203309 60 158 4.0 4.0 0.00 0.00 0.00 71 1010.3
20260506202809 60 158 4.0 7.0 0.00 0.00 0.00 71 1010.3
20260506202313 60 158 3.0 7.0 0.00 0.00 0.00 71 1010.3
20260506201310 61 135 3.0 7.0 0.00 0.00 0.00 70 1010.4
20260506200809 61 158 3.0 6.0 0.00 0.00 0.00 70 1010.5
20260506195809 62 135 3.0 5.0 0.00 0.00 0.00 69 1010.3
20260506195309 62 135 3.0 5.0 0.00 0.00 0.00 69 1010.3
20260506194310 62 158 5.0 8.0 0.00 0.00 0.00 69 1010.1
20260506193809 62 135 4.0 5.0 0.00 0.00 0.00 69 1010.2
20260506193309 62 135 2.0 4.0 0.00 0.00 0.00 69 1010.1
20260506192811 62 135 3.0 7.0 0.00 0.00 0.00 69 1010.1
20260506192309 62 135 2.0 7.0 0.00 0.00 0.00 69 1009.9
20260506191810 62 135 1.0 3.0 0.00 0.00 0.00 69 1010.0
20260506190809 62 135 0.0 0.0 0.00 0.00 0.00 68 1009.7
20260506190310 63 158 3.0 7.0 0.00 0.00 0.00 68 1009.8
20260506185810 63 135 5.0 7.0 0.00 0.00 0.00 67 1009.7
20260506185310 63 135 5.0 7.0 0.00 0.00 0.00 67 1009.7
20260506184810 63 135 7.0 11.0 0.00 0.00 0.00 67 1009.8
20260506184310 63 158 7.0 11.0 0.00 0.00 0.00 67 1009.7
20260506183810 63 180 4.0 7.0 0.00 0.00 0.00 67 1009.8
20260506183310 63 135 1.0 3.0 0.00 0.00 0.00 67 1009.6
20260506182810 63 135 3.0 6.0 0.00 0.00 0.00 66 1009.6
20260506182310 63 135 3.0 6.0 0.00 0.00 0.00 66 1009.8
20260506181811 64 180 4.0 6.0 0.00 0.00 0.00 65 1009.6
20260506181311 64 180 4.0 6.0 0.00 0.00 0.00 65 1009.6
20260506180810 64 135 3.0 6.0 0.00 0.00 0.00 65 1009.5
20260506180310 64 135 4.0 6.0 0.00 0.00 0.00 65 1009.3
20260506175811 64 158 4.0 10.0 0.00 0.00 0.00 65 1009.6
20260506175310 64 158 4.0 10.0 0.00 0.00 0.00 65 1009.6
20260506174811 64 158 5.0 7.0 0.00 0.00 0.00 65 1009.4
20260506173811 65 158 5.0 7.0 0.00 0.00 0.00 64 1009.3
20260506173311 65 158 4.0 6.0 0.00 0.00 0.00 64 1009.3
20260506172811 65 158 4.0 8.0 0.00 0.00 0.00 63 1009.2
20260506172311 65 158 5.0 8.0 0.00 0.00 0.00 63 1009.1
20260506170812 66 135 3.0 6.0 0.00 0.00 0.00 62 1009.2
20260506170311 66 135 4.0 5.0 0.00 0.00 0.00 62 1009.4
20260506165811 66 180 4.0 6.0 0.00 0.00 0.00 62 1009.3
20260506165311 66 135 4.0 6.0 0.00 0.00 0.00 62 1009.3
20260506164811 67 135 5.0 8.0 0.00 0.00 0.00 62 1009.3
20260506164311 67 158 5.0 8.0 0.00 0.00 0.00 62 1009.4
20260506163811 67 158 5.0 7.0 0.00 0.00 0.00 62 1009.5
20260506163313 67 158 3.0 5.0 0.00 0.00 0.00 61 1009.5
20260506161812 66 158 4.0 9.0 0.00 0.00 0.00 61 1009.7
20260506161312 66 158 5.0 9.0 0.00 0.00 0.00 61 1009.7
20260506160812 66 158 4.0 10.0 0.00 0.00 0.00 61 1009.5
20260506160312 66 158 6.0 10.0 0.00 0.00 0.00 61 1009.8
20260506155812 67 158 6.0 10.0 0.00 0.00 0.00 60 1009.8
20260506155313 67 135 6.0 8.0 0.00 0.00 0.00 60 1009.6
20260506154812 67 158 5.0 7.0 0.00 0.00 0.00 60 1009.7
20260506153812 67 180 6.0 13.0 0.00 0.00 0.00 59 1009.8
20260506153312 68 158 7.0 12.0 0.00 0.00 0.00 59 1009.7
20260506152313 68 203 2.0 6.0 0.00 0.00 0.00 58 1009.8
20260506151315 69 158 4.0 10.0 0.00 0.00 0.00 57 1010.0
20260506150313 69 158 0.0 1.0 0.00 0.00 0.00 56 1009.9
20260506145313 70 158 2.0 9.0 0.00 0.00 0.00 57 1010.0
20260506144313 70 158 6.0 14.0 0.00 0.00 0.00 55 1009.9
20260506143813 70 180 12.0 15.0 0.00 0.00 0.00 56 1009.9
20260506143313 71 180 9.0 15.0 0.00 0.00 0.00 54 1009.9
20260506142813 71 180 7.0 13.0 0.00 0.00 0.00 54 1010.1
20260506141813 72 158 7.0 14.0 0.00 0.00 0.00 53 1010.0
20260506141314 72 158 6.0 13.0 0.00 0.00 0.00 54 1010.1
20260506140313 72 180 7.0 13.0 0.00 0.00 0.00 55 1010.0
20260506135313 70 248 6.0 9.0 0.00 0.00 0.00 56 1010.3
20260506134813 70 158 2.0 7.0 0.00 0.00 0.00 57 1010.2
20260506133813 70 135 4.0 7.0 0.00 0.00 0.00 56 1010.4
20260506133314 70 180 5.0 6.0 0.00 0.00 0.00 56 1010.5
20260506132813 70 158 9.0 17.0 0.00 0.00 0.00 56 1010.2
20260506132313 70 158 9.0 17.0 0.00 0.00 0.00 56 1010.3
20260506131814 70 158 9.0 13.0 0.00 0.00 0.00 57 1010.4
20260506131314 69 158 11.0 16.0 0.00 0.00 0.00 56 1010.3
20260506130814 70 180 12.0 16.0 0.00 0.00 0.00 55 1010.4
20260506125314 71 158 8.0 10.0 0.00 0.00 0.00 54 1010.4
20260506124815 72 158 11.0 14.0 0.00 0.00 0.00 55 1010.5
20260506124315 71 158 10.0 14.0 0.00 0.00 0.00 55 1010.3
20260506123814 71 158 9.0 17.0 0.00 0.00 0.00 53 1010.4
20260506123315 72 158 9.0 17.0 0.00 0.00 0.00 52 1010.3
20260506122814 72 135 5.0 7.0 0.00 0.00 0.00 53 1010.1
20260506122316 72 158 7.0 10.0 0.00 0.00 0.00 52 1010.3
20260506121814 73 158 7.0 10.0 0.00 0.00 0.00 52 1010.4
20260506121316 73 158 6.0 8.0 0.00 0.00 0.00 52 1010.4
20260506120814 72 158 9.0 13.0 0.00 0.00 0.00 52 1010.4
20260506120314 73 135 11.0 13.0 0.00 0.00 0.00 51 1010.4
20260506115814 74 135 9.0 13.0 0.00 0.00 0.00 50 1010.5
20260506115315 74 135 8.0 12.0 0.00 0.00 0.00 51 1010.5
20260506114814 74 180 10.0 16.0 0.00 0.00 0.00 50 1010.5
20260506114315 74 135 9.0 16.0 0.00 0.00 0.00 51 1010.3
20260506113815 73 135 8.0 11.0 0.00 0.00 0.00 53 1010.4
20260506113316 73 158 9.0 13.0 0.00 0.00 0.00 53 1010.5
20260506112815 73 135 7.0 13.0 0.00 0.00 0.00 53 1010.6
20260506112315 72 158 7.0 9.0 0.00 0.00 0.00 55 1010.8
20260506111815 71 180 8.0 9.0 0.00 0.00 0.00 56 1010.8
20260506111318 70 158 3.0 9.0 0.00 0.00 0.00 58 1011.1
20260506110815 69 180 1.0 3.0 0.00 0.00 0.00 58 1010.9
20260506110316 69 180 1.0 6.0 0.00 0.00 0.00 58 1011.0
20260506105815 69 180 4.0 7.0 0.00 0.00 0.00 58 1010.9
20260506105315 69 180 4.0 7.0 0.00 0.00 0.00 57 1011.2
20260506104815 69 180 5.0 6.0 0.00 0.00 0.00 56 1011.0
20260506104315 69 158 6.0 9.0 0.00 0.00 0.00 56 1011.1
20260506102816 71 158 4.0 8.0 0.00 0.00 0.00 54 1011.1
20260506102316 70 158 4.0 6.0 0.00 0.00 0.00 56 1011.2
20260506100816 70 113 0.0 0.0 0.00 0.00 0.00 55 1011.4
20260506095316 70 293 0.0 0.0 0.00 0.00 0.00 54 1011.5
20260506094816 70 225 0.0 4.0 0.00 0.00 0.00 55 1011.4
20260506094316 70 158 2.0 5.0 0.00 0.00 0.00 55 1011.3
20260506093817 70 113 1.0 5.0 0.00 0.00 0.00 56 1011.0
20260506093316 69 113 2.0 6.0 0.00 0.00 0.00 55 1011.2
20260506092816 69 158 3.0 6.0 0.00 0.00 0.00 54 1011.2
20260506092316 70 225 0.0 0.0 0.00 0.00 0.00 55 1011.2
20260506091816 70 225 0.0 1.0 0.00 0.00 0.00 55 1011.2
20260506091319 70 225 0.0 1.0 0.00 0.00 0.00 54 1011.1
20260506090817 71 203 2.0 9.0 0.00 0.00 0.00 53 1011.1
20260506090316 71 248 2.0 9.0 0.00 0.00 0.00 52 1011.0
20260506085816 72 158 2.0 7.0 0.00 0.00 0.00 52 1011.2
20260506085318 73 158 4.0 7.0 0.00 0.00 0.00 51 1011.1
20260506084817 74 180 4.0 6.0 0.00 0.00 0.00 51 1011.1
20260506084316 73 68 3.0 6.0 0.00 0.00 0.00 52 1011.0
20260506083818 72 270 3.0 6.0 0.00 0.00 0.00 53 1011.1
20260506083317 71 180 4.0 8.0 0.00 0.00 0.00 53 1011.0
20260506082818 71 248 4.0 8.0 0.00 0.00 0.00 53 1010.8
20260506082317 70 135 3.0 6.0 0.00 0.00 0.00 55 1010.8
20260506081817 69 180 2.0 5.0 0.00 0.00 0.00 54 1010.9
20260506080817 70 225 2.0 8.0 0.00 0.00 0.00 53 1010.7